Who We Are

A&E Flying Club is a non-profit club, located at Hawthorne Municipal airport (KHHR).  A&E does not rent aircraft; it is a members only club.  Members own, fly, and maintain four IFR-capable aircraft.  Aircraft are available for everything from a short local tour or lunch outing to extended trips.

Membership is limited to fifty Active members. Our members perform the preventative maintenance allowed by the FAA.  The club has a dedicated maintenance day and club meeting on the third Saturday of every month from 8AM until the work is done.  Many members have gone on to purchase their own aircraft having learned bout ownership through their involvement with our club.

Whether you already have a pilot certificate or think you might be interested in learning to fly, check out A&E.  For more information, please contact the membership coordinator at membership@aandeflyingclub.org.

Available data for KHHR from the past 2 hours

metar

  • KHHR 132053Z 26010KT 6SM HZ CLR 18/11 A3006 RMK AO2 SLP180 T01830106 55016
  • KHHR 131953Z 25005KT 7SM CLR 19/11 A3006 RMK AO2 SLP178 T01890111

pireps 30sm

  • KTOA UA /OV 3 WEST /TM 2045/FL010/TP C172/SK BKN008/RM TOPS 800